Tucson Davis Monthan, AZ

10:11 PM MST on December 09, 2019 (GMT -0700)
Davis-Monthan Air Force Base

Weather History for KDMA - October, 2019

Change the Weather History Date:

Wednesday, October 30, 2019

  Actual Average Record
Temperature  
Mean Temperature 54 °F -  
Max Temperature 67 °F 76 °F 95 °F (2001)
Min Temperature 39 °F 49 °F 26 °F (1971)
Degree Days  
Heating Degree Days 12    
Growing Degree Days 4 (Base 50)    
Moisture  
Dew Point 6 °F    
Average Humidity 18    
Maximum Humidity 41    
Minimum Humidity 5    
Precipitation  
Precipitation 0.00 in - - ()
Sea Level Pressure  
Sea Level Pressure 30.06 in    
Wind  
Wind Speed 6 mph (WSW)    
Max Wind Speed 12 mph    
Max Gust Speed -    
Visibility 10 miles    
Events      
Averages and records for this station are not official NWS values.
T = Trace of Precipitation, MM = Missing Value Source: NWS Daily Summary

Daily Weather History Graph

Daily Weather History Graph

Search for Another Location

Airport or City:

Astronomy

Oct. 30, 2019 Rise Set
Actual Time 6:38 AM MST 5:35 PM MST
Civil Twilight 6:13 AM MST 6:00 PM MST
Nautical Twilight 5:44 AM MST 6:29 PM MST
Astronomical Twilight 5:15 AM MST 6:57 PM MST
Moon 9:18 AM MST (10/30) 7:53 PM MST (10/30)
Length of Visible Light 11h 47m
Length of Day
10h 56m
Waxing Crescent, 9% of the Moon is Illuminated
Oct 30
Waxing Crescent
Nov 4
First Quarter
Nov 12
Full
Nov 19
Last Quarter
Nov 26
New

Hourly Weather History & Observations

Time (MST) Temp. Windchill Dew Point Humidity Pressure Visibility Wind Dir Wind Speed Gust Speed Precip Events Conditions
12:58 AM 50.5 °F - 14.2 °F 23% 29.91 in 10.0 mi SSW 6.9 mph - N/A   Clear
1:58 AM 50.4 °F - 12.9 °F 22% 29.92 in 10.0 mi SSW 6.9 mph - N/A   Clear
2:58 AM 45.7 °F 42.7 °F 18.1 °F 33% 29.93 in 10.0 mi SSE 5.8 mph - N/A   Clear
3:58 AM 45.1 °F 41.4 °F 17.8 °F 34% 29.93 in 10.0 mi South 6.9 mph - N/A   Clear
4:58 AM 44.6 °F 40.7 °F 18.7 °F 36% 29.96 in 10.0 mi South 6.9 mph - N/A   Clear
6:58 AM 40.8 °F 37.8 °F 18.9 °F 41% 30.04 in 10.0 mi SSE 4.6 mph - N/A   Clear
7:58 AM 48.6 °F - 18.5 °F 30% 30.07 in 10.0 mi Calm Calm - N/A   Clear
8:58 AM 50.9 °F - 18.9 °F 28% 30.10 in 10.0 mi WNW 3.5 mph - N/A   Clear
9:58 AM 57.2 °F - 18.7 °F 22% 30.09 in 10.0 mi Calm Calm - N/A   Partly Cloudy
10:58 AM 63.0 °F - 5.5 °F 10% 30.07 in 10.0 mi NNE 11.5 mph - N/A   Clear
11:58 AM 63.3 °F - 13.3 °F 14% 30.07 in 10.0 mi NW 5.8 mph - N/A   Clear
12:58 PM 64.4 °F - 10.6 °F 12% 30.05 in 10.0 mi Calm Calm - N/A   Clear
1:58 PM 64.9 °F - 2.1 °F 8% 30.04 in 10.0 mi NW 6.9 mph - N/A   Clear
2:58 PM 66.6 °F - -2.7 °F 6% 30.05 in 10.0 mi NNW 8.1 mph - N/A   Clear
3:58 PM 67.6 °F - -2.0 °F 6% 30.05 in 10.0 mi North 9.2 mph - N/A   Clear
4:58 PM 65.8 °F - -7.1 °F 5% 30.07 in 10.0 mi NNW 9.2 mph - N/A   Clear
5:58 PM 59.9 °F - -11.4 °F 5% 30.09 in 10.0 mi NW 4.6 mph - N/A   Clear
6:58 PM 57.6 °F - -9.4 °F 6% 30.12 in 10.0 mi NW 3.5 mph - N/A   Clear
7:58 PM 53.6 °F - -9.0 °F 7% 30.12 in 10.0 mi Calm Calm - N/A   Clear
8:58 PM 45.5 °F 41.8 °F -2.6 °F 13% 30.15 in 10.0 mi South 6.9 mph - N/A   Clear
9:58 PM 43.2 °F 39.7 °F -1.5 °F 15% 30.16 in 10.0 mi ESE 5.8 mph - N/A   Clear
10:58 PM 43.5 °F 40.1 °F -1.1 °F 16% 30.15 in 10.0 mi SE 5.8 mph - N/A   Clear
11:58 PM 39.9 °F - 2.1 °F 21% 30.15 in 10.0 mi Calm Calm - N/A   Clear